{"data":{"norad_id":59836,"epoch":"2026-05-24T20:48:56.668320Z","epoch_age_seconds":96808,"freshness":"FRESH","line1":"1 59836U 24097B   26144.86732255  .00000076  00000+0  12299-4 0  9997","line2":"2 59836  43.0005 204.4560 0001062 276.8728  83.2003 15.27577511113568","mean_motion":15.27577511,"eccentricity":0.0001062,"inclination_deg":43.0005,"raan_deg":204.456,"arg_perigee_deg":276.8728,"mean_anomaly_deg":83.2003,"bstar":1.2299e-5,"rev_number":11356,"period_min":94.266902309745,"perigee_km":482.32789025628,"apogee_km":483.78520776609,"semimajor_km":6861.1935490112,"source":"CELESTRAK","updated_at":"2026-05-25T13:38:19.085128Z"}}